Time,TemperatureF,DewpointF,PressureIn,WindDirection,WindDirectionDegrees,WindSpeedMPH,WindSpeedGustMPH,Humidity,HourlyPrecipIn,Conditions,Clouds,dailyrainin,SoftwareType,DateUTC
2013-01-18 00:00:00,31.1,28.4,30.21,SE,135,0.0,0.0,95,0.00,,,0.00,WeatherTracker,2013-01-18 08:00:00,
2013-01-18 00:10:00,31.1,28.4,30.21,SSE,157,0.0,0.0,96,0.00,,,0.00,WeatherTracker,2013-01-18 08:10:00,
2013-01-18 00:20:00,30.7,28.4,30.18,SE,135,0.0,1.0,95,0.00,,,0.00,WeatherTracker,2013-01-18 08:20:00,
2013-01-18 00:25:00,30.4,28.4,30.18,SE,135,1.0,1.0,95,0.00,,,0.00,WeatherTracker,2013-01-18 08:25:00,
2013-01-18 00:35:00,30.7,28.4,30.21,East,90,1.0,1.0,95,0.00,,,0.00,WeatherTracker,2013-01-18 08:35:00,
2013-01-18 00:45:00,30.6,28.4,30.21,East,90,0.0,0.0,95,0.00,,,0.00,WeatherTracker,2013-01-18 08:45:00,
2013-01-18 00:55:00,30.7,28.4,30.21,SE,135,0.0,0.0,96,0.00,,,0.00,WeatherTracker,2013-01-18 08:55:00,
2013-01-18 01:05:00,30.6,28.4,30.18,SE,135,1.0,2.0,95,0.00,,,0.00,WeatherTracker,2013-01-18 09:05:00,
2013-01-18 01:10:00,30.7,28.4,30.18,ESE,112,1.0,0.0,96,0.00,,,0.00,WeatherTracker,2013-01-18 09:10:00,
2013-01-18 01:20:00,30.4,28.4,30.21,SE,135,1.0,1.0,96,0.00,,,0.00,WeatherTracker,2013-01-18 09:20:00,
2013-01-18 01:30:00,30.4,28.4,30.21,SE,135,0.0,0.0,96,0.00,,,0.00,WeatherTracker,2013-01-18 09:30:00,
2013-01-18 01:35:00,30.2,28.4,30.21,SE,135,0.0,0.0,96,0.00,,,0.00,WeatherTracker,2013-01-18 09:35:00,
2013-01-18 01:40:00,30.2,28.4,30.21,SE,135,0.0,0.0,96,0.00,,,0.00,WeatherTracker,2013-01-18 09:40:00,
2013-01-18 01:45:00,30.2,28.4,30.18,SE,135,0.0,0.0,96,0.00,,,0.00,WeatherTracker,2013-01-18 09:45:00,
2013-01-18 01:50:00,30.0,28.4,30.18,SE,135,0.0,0.0,96,0.00,,,0.00,WeatherTracker,2013-01-18 09:50:00,
2013-01-18 01:55:00,30.2,28.4,30.18,SE,135,1.0,1.0,96,0.00,,,0.00,WeatherTracker,2013-01-18 09:55:00,
2013-01-18 02:00:00,30.2,28.4,30.18,SE,135,0.0,0.0,96,0.00,,,0.00,WeatherTracker,2013-01-18 10:00:00,
2013-01-18 02:05:00,30.2,28.4,30.18,ESE,112,0.0,0.0,96,0.00,,,0.00,WeatherTracker,2013-01-18 10:05:00,
2013-01-18 02:10:00,30.4,28.4,30.18,ESE,112,0.0,0.0,96,0.00,,,0.00,WeatherTracker,2013-01-18 10:10:00,
2013-01-18 02:20:00,30.6,28.4,30.21,SE,135,1.0,2.0,96,0.00,,,0.00,WeatherTracker,2013-01-18 10:20:00,
2013-01-18 02:30:00,30.2,28.4,30.18,SE,135,0.0,0.0,96,0.00,,,0.00,WeatherTracker,2013-01-18 10:30:00,
2013-01-18 02:35:00,30.4,28.4,30.18,SE,135,0.0,0.0,96,0.00,,,0.00,WeatherTracker,2013-01-18 10:35:00,
2013-01-18 02:45:00,30.2,28.4,30.18,SE,135,0.0,0.0,96,0.00,,,0.00,WeatherTracker,2013-01-18 10:45:00,
2013-01-18 02:55:00,30.0,28.4,30.18,SE,135,1.0,1.0,96,0.00,,,0.00,WeatherTracker,2013-01-18 10:55:00,
2013-01-18 03:05:00,30.0,28.4,30.21,SE,135,1.0,1.0,96,0.00,,,0.00,WeatherTracker,2013-01-18 11:05:00,
2013-01-18 03:10:00,29.8,28.4,30.21,SE,135,0.0,0.0,96,0.00,,,0.00,WeatherTracker,2013-01-18 11:10:00,
2013-01-18 03:15:00,30.0,28.4,30.18,SE,135,0.0,0.0,96,0.00,,,0.00,WeatherTracker,2013-01-18 11:15:00,
2013-01-18 03:20:00,29.7,28.4,30.18,SE,135,1.0,0.0,96,0.00,,,0.00,WeatherTracker,2013-01-18 11:20:00,
2013-01-18 03:30:00,29.7,28.4,30.18,SE,135,0.0,0.0,96,0.00,,,0.00,WeatherTracker,2013-01-18 11:30:00,
2013-01-18 03:40:00,29.5,28.4,30.18,SE,135,0.0,0.0,96,0.00,,,0.00,WeatherTracker,2013-01-18 11:40:00,
2013-01-18 03:50:00,29.5,28.4,30.21,SE,135,1.0,1.0,96,0.00,,,0.00,WeatherTracker,2013-01-18 11:50:00,
2013-01-18 03:55:00,29.7,28.4,30.21,SE,135,0.0,0.0,97,0.00,,,0.00,WeatherTracker,2013-01-18 11:55:00,
2013-01-18 04:00:00,29.7,28.4,30.18,SE,135,0.0,0.0,97,0.00,,,0.00,WeatherTracker,2013-01-18 12:00:00,
2013-01-18 04:05:00,29.5,28.4,30.18,SE,135,1.0,1.0,96,0.00,,,0.00,WeatherTracker,2013-01-18 12:05:00,
2013-01-18 04:15:00,29.7,28.4,30.18,SE,135,0.0,0.0,97,0.00,,,0.00,WeatherTracker,2013-01-18 12:15:00,
2013-01-18 04:20:00,29.5,28.4,30.18,SE,135,0.0,0.0,97,0.00,,,0.00,WeatherTracker,2013-01-18 12:20:00,
2013-01-18 04:30:00,29.5,28.4,30.18,SE,135,0.0,0.0,96,0.00,,,0.00,WeatherTracker,2013-01-18 12:30:00,
2013-01-18 04:40:00,29.3,26.6,30.18,SE,135,0.0,0.0,97,0.00,,,0.00,WeatherTracker,2013-01-18 12:40:00,
2013-01-18 04:50:00,29.3,26.6,30.18,SE,135,0.0,0.0,97,0.00,,,0.00,WeatherTracker,2013-01-18 12:50:00,
2013-01-18 04:55:00,29.3,26.6,30.18,SE,135,0.0,0.0,97,0.00,,,0.00,WeatherTracker,2013-01-18 12:55:00,
2013-01-18 05:00:00,29.3,26.6,30.18,SE,135,0.0,0.0,97,0.00,,,0.00,WeatherTracker,2013-01-18 13:00:00,
2013-01-18 05:05:00,29.1,26.6,30.18,SE,135,1.0,0.0,96,0.00,,,0.00,WeatherTracker,2013-01-18 13:05:00,
2013-01-18 05:15:00,29.1,26.6,30.18,SE,135,1.0,1.0,97,0.00,,,0.00,WeatherTracker,2013-01-18 13:15:00,
2013-01-18 05:25:00,29.1,26.6,30.18,SE,135,0.0,0.0,97,0.00,,,0.00,WeatherTracker,2013-01-18 13:25:00,
2013-01-18 05:30:00,29.1,26.6,30.18,SE,135,0.0,2.0,97,0.00,,,0.00,WeatherTracker,2013-01-18 13:30:00,
2013-01-18 05:35:00,29.1,26.6,30.18,SE,135,1.0,1.0,97,0.00,,,0.00,WeatherTracker,2013-01-18 13:35:00,
2013-01-18 05:45:00,28.9,26.6,30.18,SE,135,1.0,1.0,97,0.00,,,0.00,WeatherTracker,2013-01-18 13:45:00,
2013-01-18 05:50:00,28.9,26.6,30.18,SE,135,0.0,0.0,97,0.00,,,0.00,WeatherTracker,2013-01-18 13:50:00,
2013-01-18 06:00:00,29.1,26.6,30.18,SE,135,0.0,0.0,97,0.00,,,0.00,WeatherTracker,2013-01-18 14:00:00,
2013-01-18 06:10:00,29.1,26.6,30.18,SE,135,0.0,1.0,97,0.00,,,0.00,WeatherTracker,2013-01-18 14:10:00,
2013-01-18 06:15:00,28.9,26.6,30.18,SE,135,0.0,0.0,97,0.00,,,0.00,WeatherTracker,2013-01-18 14:15:00,
2013-01-18 06:25:00,28.9,26.6,30.18,SE,135,0.0,0.0,97,0.00,,,0.00,WeatherTracker,2013-01-18 14:25:00,
2013-01-18 06:35:00,28.9,26.6,30.18,SE,135,1.0,1.0,97,0.00,,,0.00,WeatherTracker,2013-01-18 14:35:00,
2013-01-18 06:40:00,28.9,26.6,30.18,SE,135,0.0,0.0,97,0.00,,,0.00,WeatherTracker,2013-01-18 14:40:00,
2013-01-18 06:45:00,29.5,28.4,30.18,SE,135,0.0,0.0,97,0.00,,,0.00,WeatherTracker,2013-01-18 14:45:00,
2013-01-18 06:50:00,29.1,26.6,30.18,SE,135,0.0,0.0,97,0.00,,,0.00,WeatherTracker,2013-01-18 14:50:00,
2013-01-18 07:00:00,28.9,26.6,30.18,SE,135,0.0,0.0,97,0.00,,,0.00,WeatherTracker,2013-01-18 15:00:00,
2013-01-18 07:10:00,29.3,26.6,30.18,SE,135,0.0,0.0,97,0.00,,,0.00,WeatherTracker,2013-01-18 15:10:00,
2013-01-18 07:20:00,29.5,28.4,30.18,SE,135,0.0,0.0,97,0.00,,,0.00,WeatherTracker,2013-01-18 15:20:00,
2013-01-18 07:25:00,29.8,28.4,30.18,SE,135,2.0,0.0,98,0.00,,,0.00,WeatherTracker,2013-01-18 15:25:00,
2013-01-18 07:35:00,30.7,30.2,30.21,SE,135,0.0,0.0,98,0.00,,,0.00,WeatherTracker,2013-01-18 15:35:00,
2013-01-18 07:45:00,31.1,30.2,30.21,SE,135,0.0,0.0,98,0.00,,,0.00,WeatherTracker,2013-01-18 15:45:00,
2013-01-18 07:50:00,31.3,30.2,30.21,SE,135,0.0,0.0,98,0.00,,,0.00,WeatherTracker,2013-01-18 15:50:00,
2013-01-18 07:55:00,31.1,30.2,30.21,SE,135,2.0,2.0,98,0.00,,,0.00,WeatherTracker,2013-01-18 15:55:00,
2013-01-18 08:00:00,30.7,28.4,30.21,SE,135,0.0,0.0,97,0.00,,,0.00,WeatherTracker,2013-01-18 16:00:00,
2013-01-18 08:10:00,30.4,28.4,30.21,East,90,0.0,0.0,97,0.00,,,0.00,WeatherTracker,2013-01-18 16:10:00,
2013-01-18 08:20:00,30.6,28.4,30.21,SE,135,0.0,0.0,97,0.00,,,0.00,WeatherTracker,2013-01-18 16:20:00,
2013-01-18 08:25:00,30.7,28.4,30.21,SE,135,1.0,1.0,97,0.00,,,0.00,WeatherTracker,2013-01-18 16:25:00,
2013-01-18 08:30:00,30.7,28.4,30.21,SE,135,0.0,0.0,97,0.00,,,0.00,WeatherTracker,2013-01-18 16:30:00,
2013-01-18 08:35:00,30.7,28.4,30.21,SE,135,1.0,2.0,97,0.00,,,0.00,WeatherTracker,2013-01-18 16:35:00,
2013-01-18 08:45:00,31.3,30.2,30.21,SE,135,0.0,0.0,98,0.00,,,0.00,WeatherTracker,2013-01-18 16:45:00,
2013-01-18 08:55:00,31.5,30.2,30.21,SE,135,0.0,0.0,98,0.00,,,0.00,WeatherTracker,2013-01-18 16:55:00,
2013-01-18 09:00:00,31.3,30.2,30.24,SE,135,0.0,0.0,98,0.00,,,0.00,WeatherTracker,2013-01-18 17:00:00,
2013-01-18 09:05:00,31.3,30.2,30.24,SE,135,0.0,0.0,97,0.00,,,0.00,WeatherTracker,2013-01-18 17:05:00,
2013-01-18 09:10:00,31.6,30.2,30.24,SE,135,0.0,0.0,98,0.00,,,0.00,WeatherTracker,2013-01-18 17:10:00,
2013-01-18 09:20:00,31.8,30.2,30.21,SE,135,0.0,0.0,98,0.00,,,0.00,WeatherTracker,2013-01-18 17:20:00,
2013-01-18 09:30:00,32.5,33.8,30.24,SE,135,0.0,0.0,98,0.00,,,0.00,WeatherTracker,2013-01-18 17:30:00,
2013-01-18 09:35:00,32.5,33.8,30.24,SE,135,0.0,0.0,98,0.00,,,0.00,WeatherTracker,2013-01-18 17:35:00,
2013-01-18 09:40:00,32.7,33.8,30.24,SE,135,0.0,0.0,98,0.00,,,0.00,WeatherTracker,2013-01-18 17:40:00,
2013-01-18 09:45:00,33.1,33.8,30.24,SE,135,0.0,0.0,98,0.00,,,0.00,WeatherTracker,2013-01-18 17:45:00,
2013-01-18 09:55:00,33.6,33.8,30.24,SE,135,0.0,0.0,98,0.00,,,0.00,WeatherTracker,2013-01-18 17:55:00,
2013-01-18 10:05:00,34.0,33.8,30.24,SE,135,0.0,0.0,98,0.00,,,0.00,WeatherTracker,2013-01-18 18:05:00,
2013-01-18 10:10:00,34.9,35.6,30.24,SE,135,0.0,0.0,98,0.00,,,0.00,WeatherTracker,2013-01-18 18:10:00,
2013-01-18 10:15:00,35.4,35.6,30.24,SE,135,0.0,1.0,98,0.00,,,0.00,WeatherTracker,2013-01-18 18:15:00,
2013-01-18 10:25:00,35.6,35.6,30.24,SE,135,0.0,0.0,98,0.00,,,0.00,WeatherTracker,2013-01-18 18:25:00,
2013-01-18 10:30:00,35.8,35.6,30.24,East,90,0.0,0.0,98,0.00,,,0.00,WeatherTracker,2013-01-18 18:30:00,
2013-01-18 10:35:00,36.0,35.6,30.24,SE,135,1.0,1.0,98,0.00,,,0.00,WeatherTracker,2013-01-18 18:35:00,
2013-01-18 10:40:00,36.7,37.4,30.24,SE,135,1.0,0.0,98,0.00,,,0.00,WeatherTracker,2013-01-18 18:40:00,
2013-01-18 10:45:00,37.4,37.4,30.24,SE,135,0.0,0.0,98,0.00,,,0.00,WeatherTracker,2013-01-18 18:45:00,
2013-01-18 10:50:00,37.6,37.4,30.24,SE,135,1.0,0.0,98,0.00,,,0.00,WeatherTracker,2013-01-18 18:50:00,
2013-01-18 10:55:00,37.8,37.4,30.24,ENE,67,1.0,0.0,98,0.00,,,0.00,WeatherTracker,2013-01-18 18:55:00,
2013-01-18 11:05:00,37.8,37.4,30.24,SE,135,1.0,3.0,98,0.00,,,0.00,WeatherTracker,2013-01-18 19:05:00,
2013-01-18 11:15:00,38.5,39.2,30.24,ESE,112,0.0,1.0,98,0.00,,,0.00,WeatherTracker,2013-01-18 19:15:00,
2013-01-18 11:20:00,38.8,39.2,30.24,SE,135,1.0,1.0,98,0.00,,,0.00,WeatherTracker,2013-01-18 19:20:00,
2013-01-18 11:25:00,39.0,39.2,30.24,SE,135,1.0,3.0,98,0.00,,,0.00,WeatherTracker,2013-01-18 19:25:00,
2013-01-18 11:30:00,39.7,39.2,30.24,SSE,157,0.0,0.0,98,0.00,,,0.00,WeatherTracker,2013-01-18 19:30:00,
2013-01-18 11:40:00,40.6,41.0,30.24,SSE,157,2.0,3.0,98,0.00,,,0.00,WeatherTracker,2013-01-18 19:40:00,
2013-01-18 11:50:00,42.8,42.8,30.24,South,180,1.0,2.0,98,0.00,,,0.00,WeatherTracker,2013-01-18 19:50:00,
2013-01-18 11:55:00,43.5,42.8,30.24,ENE,67,0.0,0.0,97,0.00,,,0.00,WeatherTracker,2013-01-18 19:55:00,
2013-01-18 12:00:00,43.5,42.8,30.24,South,180,2.0,2.0,97,0.00,,,0.00,WeatherTracker,2013-01-18 20:00:00,
2013-01-18 12:05:00,43.3,42.8,30.24,SSE,157,1.0,2.0,96,0.00,,,0.00,WeatherTracker,2013-01-18 20:05:00,
2013-01-18 12:15:00,43.7,41.0,30.24,South,180,2.0,2.0,89,0.00,,,0.00,WeatherTracker,2013-01-18 20:15:00,
2013-01-18 12:20:00,44.8,41.0,30.24,South,180,1.0,1.0,87,0.00,,,0.00,WeatherTracker,2013-01-18 20:20:00,
2013-01-18 12:25:00,44.8,37.4,30.24,SE,135,2.0,3.0,77,0.00,,,0.00,WeatherTracker,2013-01-18 20:25:00,
2013-01-18 12:30:00,45.7,39.2,30.24,ESE,112,0.0,0.0,79,0.00,,,0.00,WeatherTracker,2013-01-18 20:30:00,
2013-01-18 12:35:00,46.0,39.2,30.24,SSW,202,2.0,2.0,78,0.00,,,0.00,WeatherTracker,2013-01-18 20:35:00,
2013-01-18 12:40:00,46.9,41.0,30.24,SE,135,0.0,0.0,77,0.00,,,0.00,WeatherTracker,2013-01-18 20:40:00,
2013-01-18 12:50:00,47.7,39.2,30.24,NNW,337,2.0,2.0,72,0.00,,,0.00,WeatherTracker,2013-01-18 20:50:00,
2013-01-18 13:00:00,48.4,39.2,30.24,SSW,202,1.0,1.0,69,0.00,,,0.00,WeatherTracker,2013-01-18 21:00:00,
2013-01-18 13:05:00,48.4,39.2,30.24,North,0,2.0,0.0,68,0.00,,,0.00,WeatherTracker,2013-01-18 21:05:00,
2013-01-18 13:10:00,48.6,39.2,30.24,South,180,1.0,1.0,68,0.00,,,0.00,WeatherTracker,2013-01-18 21:10:00,
2013-01-18 13:15:00,48.4,37.4,30.24,WNW,292,1.0,2.0,66,0.00,,,0.00,WeatherTracker,2013-01-18 21:15:00,
2013-01-18 13:25:00,47.3,37.4,30.24,SSW,202,2.0,2.0,65,0.00,,,0.00,WeatherTracker,2013-01-18 21:25:00,
2013-01-18 13:35:00,47.3,37.4,30.24,SE,135,2.0,2.0,67,0.00,,,0.00,WeatherTracker,2013-01-18 21:35:00,
2013-01-18 13:40:00,47.1,37.4,30.24,ESE,112,0.0,0.0,65,0.00,,,0.00,WeatherTracker,2013-01-18 21:40:00,
2013-01-18 13:45:00,46.8,37.4,30.24,SE,135,1.0,1.0,67,0.00,,,0.00,WeatherTracker,2013-01-18 21:45:00,
2013-01-18 13:50:00,46.4,35.6,30.24,SE,135,0.0,1.0,66,0.00,,,0.00,WeatherTracker,2013-01-18 21:50:00,
2013-01-18 14:00:00,45.5,35.6,30.21,SE,135,0.0,0.0,69,0.00,,,0.00,WeatherTracker,2013-01-18 22:00:00,
2013-01-18 14:10:00,46.0,35.6,30.21,NNE,22,0.0,0.0,69,0.00,,,0.00,WeatherTracker,2013-01-18 22:10:00,
2013-01-18 14:15:00,46.0,35.6,30.24,NNE,22,0.0,0.0,69,0.00,,,0.00,WeatherTracker,2013-01-18 22:15:00,
2013-01-18 14:20:00,45.9,35.6,30.24,NNE,22,0.0,0.0,69,0.00,,,0.00,WeatherTracker,2013-01-18 22:20:00,
2013-01-18 14:30:00,45.5,35.6,30.24,North,0,0.0,0.0,68,0.00,,,0.00,WeatherTracker,2013-01-18 22:30:00,
2013-01-18 14:35:00,45.7,35.6,30.24,NNE,22,1.0,1.0,68,0.00,,,0.00,WeatherTracker,2013-01-18 22:35:00,
2013-01-18 14:45:00,45.0,35.6,30.24,NNE,22,1.0,1.0,67,0.00,,,0.00,WeatherTracker,2013-01-18 22:45:00,
2013-01-18 14:50:00,45.0,35.6,30.24,NNE,22,3.0,3.0,68,0.00,,,0.00,WeatherTracker,2013-01-18 22:50:00,
2013-01-18 14:55:00,45.3,35.6,30.24,NE,45,2.0,4.0,68,0.00,,,0.00,WeatherTracker,2013-01-18 22:55:00,
2013-01-18 15:05:00,46.0,35.6,30.24,NNE,22,2.0,0.0,69,0.00,,,0.00,WeatherTracker,2013-01-18 23:05:00,
2013-01-18 15:10:00,46.2,35.6,30.24,NNE,22,2.0,2.0,67,0.00,,,0.00,WeatherTracker,2013-01-18 23:10:00,
2013-01-18 15:20:00,46.0,35.6,30.24,North,0,2.0,2.0,66,0.00,,,0.00,WeatherTracker,2013-01-18 23:20:00,
2013-01-18 15:25:00,45.9,35.6,30.24,ENE,67,2.0,3.0,67,0.00,,,0.00,WeatherTracker,2013-01-18 23:25:00,
2013-01-18 15:30:00,45.3,33.8,30.24,ENE,67,4.0,4.0,66,0.00,,,0.00,WeatherTracker,2013-01-18 23:30:00,
2013-01-18 15:35:00,44.8,33.8,30.24,North,0,4.0,4.0,66,0.00,,,0.00,WeatherTracker,2013-01-18 23:35:00,
2013-01-18 15:45:00,43.7,33.8,30.24,ENE,67,2.0,3.0,69,0.00,,,0.00,WeatherTracker,2013-01-18 23:45:00,
2013-01-18 15:55:00,42.4,33.8,30.24,NE,45,2.0,2.0,71,0.00,,,0.00,WeatherTracker,2013-01-18 23:55:00,
2013-01-18 16:00:00,42.1,33.8,30.24,NE,45,2.0,3.0,72,0.00,,,0.00,WeatherTracker,2013-01-19 00:00:00,
2013-01-18 16:05:00,41.7,33.8,30.24,NE,45,2.0,2.0,73,0.00,,,0.00,WeatherTracker,2013-01-19 00:05:00,
2013-01-18 16:15:00,41.0,33.8,30.24,NNE,22,2.0,2.0,75,0.00,,,0.00,WeatherTracker,2013-01-19 00:15:00,
2013-01-18 16:20:00,40.6,33.8,30.24,NE,45,2.0,3.0,77,0.00,,,0.00,WeatherTracker,2013-01-19 00:20:00,
2013-01-18 16:30:00,40.1,33.8,30.24,NNE,22,2.0,3.0,78,0.00,,,0.00,WeatherTracker,2013-01-19 00:30:00,
2013-01-18 16:35:00,39.7,33.8,30.24,NE,45,0.0,2.0,78,0.00,,,0.00,WeatherTracker,2013-01-19 00:35:00,
2013-01-18 16:45:00,39.4,33.8,30.24,East,90,1.0,3.0,80,0.00,,,0.00,WeatherTracker,2013-01-19 00:45:00,
2013-01-18 16:55:00,38.7,33.8,30.24,SE,135,2.0,2.0,80,0.00,,,0.00,WeatherTracker,2013-01-19 00:55:00,
2013-01-18 17:05:00,37.8,33.8,30.24,East,90,0.0,0.0,81,0.00,,,0.00,WeatherTracker,2013-01-19 01:05:00,
2013-01-18 17:10:00,37.4,32.0,30.24,East,90,0.0,0.0,81,0.00,,,0.00,WeatherTracker,2013-01-19 01:10:00,
2013-01-18 17:20:00,36.7,32.0,30.24,East,90,0.0,0.0,82,0.00,,,0.00,WeatherTracker,2013-01-19 01:20:00,
2013-01-18 17:30:00,36.1,32.0,30.24,East,90,0.0,0.0,83,0.00,,,0.00,WeatherTracker,2013-01-19 01:30:00,
2013-01-18 17:40:00,36.0,32.0,30.24,East,90,0.0,0.0,84,0.00,,,0.00,WeatherTracker,2013-01-19 01:40:00,
2013-01-18 17:45:00,35.6,32.0,30.24,East,90,0.0,0.0,84,0.00,,,0.00,WeatherTracker,2013-01-19 01:45:00,
2013-01-18 17:55:00,35.4,32.0,30.24,East,90,0.0,0.0,85,0.00,,,0.00,WeatherTracker,2013-01-19 01:55:00,
2013-01-18 18:00:00,35.1,32.0,30.24,SE,135,0.0,0.0,86,0.00,,,0.00,WeatherTracker,2013-01-19 02:00:00,
2013-01-18 18:05:00,34.9,32.0,30.24,SE,135,0.0,0.0,86,0.00,,,0.00,WeatherTracker,2013-01-19 02:05:00,
2013-01-18 18:15:00,34.5,32.0,30.24,ESE,112,0.0,0.0,87,0.00,,,0.00,WeatherTracker,2013-01-19 02:15:00,
2013-01-18 18:25:00,34.3,32.0,30.24,ESE,112,0.0,0.0,87,0.00,,,0.00,WeatherTracker,2013-01-19 02:25:00,
2013-01-18 18:30:00,34.2,32.0,30.24,ESE,112,0.0,0.0,87,0.00,,,0.00,WeatherTracker,2013-01-19 02:30:00,
2013-01-18 18:40:00,33.8,30.2,30.24,ESE,112,0.0,0.0,88,0.00,,,0.00,WeatherTracker,2013-01-19 02:40:00,
2013-01-18 18:45:00,33.8,30.2,30.24,ESE,112,0.0,0.0,88,0.00,,,0.00,WeatherTracker,2013-01-19 02:45:00,
2013-01-18 18:50:00,33.8,32.0,30.24,SE,135,1.0,0.0,89,0.00,,,0.00,WeatherTracker,2013-01-19 02:50:00,
2013-01-18 19:00:00,33.6,32.0,30.24,SE,135,0.0,0.0,89,0.00,,,0.00,WeatherTracker,2013-01-19 03:00:00,
2013-01-18 19:05:00,33.6,32.0,30.24,SE,135,0.0,0.0,89,0.00,,,0.00,WeatherTracker,2013-01-19 03:05:00,
2013-01-18 19:15:00,33.6,32.0,30.24,ESE,112,0.0,0.0,90,0.00,,,0.00,WeatherTracker,2013-01-19 03:15:00,
2013-01-18 19:25:00,33.8,32.0,30.24,ESE,112,0.0,0.0,90,0.00,,,0.00,WeatherTracker,2013-01-19 03:25:00,
2013-01-18 19:30:00,33.6,32.0,30.24,SE,135,1.0,1.0,90,0.00,,,0.00,WeatherTracker,2013-01-19 03:30:00,
2013-01-18 19:40:00,33.8,32.0,30.24,SE,135,0.0,0.0,91,0.00,,,0.00,WeatherTracker,2013-01-19 03:40:00,
2013-01-18 19:50:00,33.6,32.0,30.27,East,90,0.0,0.0,92,0.00,,,0.00,WeatherTracker,2013-01-19 03:50:00,
2013-01-18 20:00:00,33.8,32.0,30.24,ESE,112,0.0,0.0,92,0.00,,,0.00,WeatherTracker,2013-01-19 04:00:00,
2013-01-18 20:10:00,33.4,32.0,30.24,SE,135,0.0,0.0,92,0.00,,,0.00,WeatherTracker,2013-01-19 04:10:00,
2013-01-18 20:15:00,33.3,32.0,30.24,SE,135,1.0,0.0,92,0.00,,,0.00,WeatherTracker,2013-01-19 04:15:00,
2013-01-18 20:25:00,33.3,32.0,30.24,ESE,112,0.0,0.0,92,0.00,,,0.00,WeatherTracker,2013-01-19 04:25:00,
2013-01-18 20:35:00,33.3,32.0,30.27,SE,135,0.0,0.0,93,0.00,,,0.00,WeatherTracker,2013-01-19 04:35:00,
2013-01-18 20:40:00,33.3,32.0,30.27,East,90,0.0,0.0,93,0.00,,,0.00,WeatherTracker,2013-01-19 04:40:00,
2013-01-18 20:45:00,33.6,32.0,30.27,SE,135,0.0,0.0,93,0.00,,,0.00,WeatherTracker,2013-01-19 04:45:00,
2013-01-18 20:50:00,33.4,32.0,30.27,SE,135,0.0,0.0,93,0.00,,,0.00,WeatherTracker,2013-01-19 04:50:00,
2013-01-18 21:05:00,33.3,32.0,30.27,ESE,112,0.0,0.0,93,0.00,,,0.00,WeatherTracker,2013-01-19 05:05:00,
2013-01-18 21:10:00,33.3,32.0,30.27,SE,135,0.0,0.0,93,0.00,,,0.00,WeatherTracker,2013-01-19 05:10:00,
2013-01-18 21:15:00,33.1,32.0,30.27,SE,135,0.0,0.0,93,0.00,,,0.00,WeatherTracker,2013-01-19 05:15:00,
2013-01-18 21:20:00,33.1,32.0,30.27,SE,135,0.0,0.0,93,0.00,,,0.00,WeatherTracker,2013-01-19 05:20:00,
2013-01-18 21:25:00,32.9,32.0,30.27,ESE,112,0.0,0.0,93,0.00,,,0.00,WeatherTracker,2013-01-19 05:25:00,
2013-01-18 21:35:00,32.7,32.0,30.27,SSE,157,1.0,2.0,93,0.00,,,0.00,WeatherTracker,2013-01-19 05:35:00,
2013-01-18 21:40:00,32.7,32.0,30.27,ESE,112,0.0,0.0,93,0.00,,,0.00,WeatherTracker,2013-01-19 05:40:00,
2013-01-18 21:45:00,32.5,32.0,30.30,SE,135,0.0,0.0,93,0.00,,,0.00,WeatherTracker,2013-01-19 05:45:00,
2013-01-18 21:50:00,32.4,30.2,30.30,SE,135,0.0,0.0,93,0.00,,,0.00,WeatherTracker,2013-01-19 05:50:00,
2013-01-18 21:55:00,32.5,32.0,30.30,SE,135,0.0,0.0,94,0.00,,,0.00,WeatherTracker,2013-01-19 05:55:00,
2013-01-18 22:00:00,32.5,32.0,30.27,SE,135,0.0,0.0,94,0.00,,,0.00,WeatherTracker,2013-01-19 06:00:00,
2013-01-18 22:10:00,32.9,32.0,30.27,SE,135,0.0,0.0,94,0.00,,,0.00,WeatherTracker,2013-01-19 06:10:00,
2013-01-18 22:15:00,32.7,32.0,30.27,ESE,112,0.0,0.0,94,0.00,,,0.00,WeatherTracker,2013-01-19 06:15:00,
2013-01-18 22:20:00,32.7,32.0,30.27,ESE,112,0.0,0.0,94,0.00,,,0.00,WeatherTracker,2013-01-19 06:20:00,
2013-01-18 22:25:00,32.7,32.0,30.27,SE,135,1.0,1.0,94,0.00,,,0.00,WeatherTracker,2013-01-19 06:25:00,
2013-01-18 22:30:00,32.5,32.0,30.27,SE,135,0.0,0.0,94,0.00,,,0.00,WeatherTracker,2013-01-19 06:30:00,
2013-01-18 22:35:00,32.5,32.0,30.27,SE,135,1.0,1.0,94,0.00,,,0.00,WeatherTracker,2013-01-19 06:35:00,
2013-01-18 22:45:00,32.5,32.0,30.27,ESE,112,0.0,0.0,94,0.00,,,0.00,WeatherTracker,2013-01-19 06:45:00,
2013-01-18 22:55:00,32.4,30.2,30.27,ESE,112,0.0,0.0,94,0.00,,,0.00,WeatherTracker,2013-01-19 06:55:00,
2013-01-18 23:00:00,32.4,30.2,30.27,SE,135,2.0,2.0,94,0.00,,,0.00,WeatherTracker,2013-01-19 07:00:00,
2013-01-18 23:10:00,32.2,32.0,30.27,ESE,112,0.0,0.0,95,0.00,,,0.00,WeatherTracker,2013-01-19 07:10:00,
2013-01-18 23:20:00,31.8,30.2,30.27,ESE,112,0.0,0.0,95,0.00,,,0.00,WeatherTracker,2013-01-19 07:20:00,
2013-01-18 23:25:00,31.5,28.4,30.27,SE,135,0.0,0.0,94,0.00,,,0.00,WeatherTracker,2013-01-19 07:25:00,
2013-01-18 23:30:00,31.5,28.4,30.24,ESE,112,0.0,0.0,95,0.00,,,0.00,WeatherTracker,2013-01-19 07:30:00,
2013-01-18 23:40:00,31.5,28.4,30.24,SE,135,0.0,0.0,95,0.00,,,0.00,WeatherTracker,2013-01-19 07:40:00,
2013-01-18 23:45:00,31.3,28.4,30.24,SE,135,0.0,0.0,95,0.00,,,0.00,WeatherTracker,2013-01-19 07:45:00,
2013-01-18 23:55:00,31.1,28.4,30.24,SE,135,0.0,0.0,95,0.00,,,0.00,WeatherTracker,2013-01-19 07:55:00,